Regional Weather Roundup
Issued by NWS

Home | Current Version | Previous Version | Text Only | Print | Product List | Glossary On
Versions: 1 2 3 4 5 6 7 8 9 10 11 12 13 14 15 16 17 18 19 20 21 22 23 24 25 26 27 28 29 30 31 32 33 34 35 36 37 38 39 40 41 42 43 44 45 46 47 48 49 50
223
ASUS46 KSEW 250910
RWRWA

WASHINGTON REGIONAL WEATHER ROUNDUP
NATIONAL WEATHER SERVICE SEATTLE WA
200 AM PDT WED APR 25 2018

NOTE:"FAIR" INDICATES FEW OR NO CLOUDS BELOW 12,000 FEET WITH NO
SIGNIFICANT WEATHER AND/OR OBSTRUCTIONS TO VISIBILITY.

WAZ507-509-555>559-251000-
SEATTLE, TACOMA, EVERETT, AND VICINITY

CITY           SKY/WX    TMP DP  RH WIND       PRES   REMARKS
EVERETT        CLEAR     53  39  59 NW6       30.09S
BOEING FIELD   CLEAR     55 N/A N/A N3        30.07S
RENTON         CLEAR     57  38  48 NW6       30.06S
SEATAC AIRPORT PTCLDY    55  36  48 N7        30.07S
JBLM-MCCHORD   CLEAR     44  41  89 S3        30.07S
PUYALLUP       FAIR      46  45  93 CALM      30.07S
BREMERTON      CLEAR     58  30  34 NE13      30.06F
JBLM-FT LEWIS  CLEAR     49  42  76 CALM      30.06S
TACOMA NARROWS CLEAR     54  37  52 N5        30.07R
$$

WAZ001-503-506-510-514-515-251000-
NORTH INTERIOR

CITY           SKY/WX    TMP DP  RH WIND       PRES   REMARKS
BELLINGHAM     CLEAR     45  43  93 CALM      30.09R
FRIDAY HARBOR  CLEAR     45  36  70 CALM      30.10S
EASTSOUND      CLEAR     54  41  62 CALM      30.10R
PORT ANGELES   PTCLDY    50  37  61 SW7       30.09F
EDIZ HOOK      FAIR      51  39  61 CALM      30.09R
PORT TOWNSEND  FAIR      41  37  87 CALM      30.10S
NAS WHIDBEY    NOT AVBL
ARLINGTON      CLEAR     47  42  83 NE3       30.09S
BURLINGTON     CLEAR     55  37  50 N6        30.10S
$$

WAZ020-022-039-040-504-511-512-251000-
SOUTHWEST INTERIOR

CITY           SKY/WX    TMP DP  RH WIND       PRES   REMARKS
SHELTON        CLEAR     44  40  85 CALM      30.05S
OLYMPIA        CLEAR     47  38  71 CALM      30.07S
CHEHALIS       FAIR      50  41  71 NE5       30.06S
KELSO          PTCLDY    51  44  77 CALM      30.03S
VANCOUVER      PTCLDY    51  44  77 CALM      30.00R
SCAPPOOSE, OR  PTCLDY    51  42  71 NW3       30.00S
PORTLAND, OR   MOCLDY    57  44  62 CALM      30.00S
$$

WAZ021-516-517-251000-
WASHINGTON COAST

CITY           SKY/WX    TMP DP  RH WIND       PRES   REMARKS
FORKS          CLEAR     47  38  71 E3        30.05S
HOQUIAM        CLEAR     57  42  57 NE5       30.04R
ASTORIA, OR    PTCLDY    49  45  86 SE5       30.00S
$$

WAZ019-023-024-040-567>569-251000-
CASCADE MOUNTAINS AND COLUMBIA GORGE

CITY           SKY/WX    TMP DP  RH WIND       PRES   REMARKS
STAMPEDE PASS  NOT AVBL
TROUTDALE, OR  PTCLDY    64  38  38 E10       29.99S
HOOD RIVER, OR PTSUNNY   52  39  62 CALM      30.08S
THE DALLES, OR MOCLDY    51  40  65 SE6       30.06F
$$

WAZ026-027-041>044-520-521-251000-
EAST SLOPES

CITY           SKY/WX    TMP DP  RH WIND       PRES   REMARKS
OMAK           CLEAR     47  36  65 W6        30.10F
WENATCHEE      PTCLDY    52  34  50 NW9       30.10F
ELLENSBURG     PTCLDY    43  32  65 NE3       30.10F
YAKIMA         PTCLDY    46  34  62 W6        30.10F
SUNNYSIDE ARPT MOSUNNY   40  35  83 CALM      30.07F
YAKIMA TC      FAIR      47  30  51 CALM      30.08F
$$

WAZ028-034-035-251000-
COLUMBIA BASIN

CITY           SKY/WX    TMP DP  RH WIND       PRES   REMARKS
EPHRATA        MOCLDY    51  34  52 N6        30.07F
MOSES LAKE     PTCLDY    46  37  71 N7        30.08F
PASCO          CLEAR     45  39  79 N6        30.07S
RICHLAND ARPT  SUNNY     47  38  70 CALM      30.07S
HERMISTON, OR  CLEAR     45  41  86 CALM      30.04F
$$

WAZ036>038-251000-
NORTHEAST WASHINGTON

CITY           SKY/WX    TMP DP  RH WIND       PRES   REMARKS
SPOKANE GEIGER MOCLDY    51  35  54 CALM      30.09F
SPOKANE FELTS  MOCLDY    44  36  73 NE3       30.10F
FAIRCHILD AFB  MOCLDY    46  38  74 CALM      30.08F
COEURDALENE,ID PTCLDY    43  35  73 NE6       30.11F
DEER PARK      MOCLDY    38  33  82 NE5       30.09F
$$

WAZ029>033-251000-
SOUTHEAST WASHINGTON

CITY           SKY/WX    TMP DP  RH WIND       PRES   REMARKS
PULLMAN        MOCLDY    49  34  56 E3        30.13F
LEWISTON, ID   MOCLDY    56  39  53 CALM      30.10S
WALLA WALLA    PTCLDY    56  35  45 N5        30.05F
PENDLETON, OR  CLEAR     49  37  63 N5        30.05F
$$




USA.gov is the U.S. government's official web portal to all federal, state and local government web resources and services.